Vorticity
6 6 6 6 6 5 4 4 4 4 5 5 6 8 9 8 5 3 3 3 4 6 9 10 11 11 9 8 11 14 14 11 8 3 1 4 7 7 5 11 20 18 13 10 9 10 9 8 6 4 3 5 10 12 6 1 5 6 4 5 5 3 2 6 7 2 -0 3 4 8 10 7 7 8 10 9 6 6 5 5 5 6 9 9 8 5 2 3
6 6 6 6 7 7 6 5 4 4 5 5 5 6 7 8 8 6 5 3 2 2 4 6 8 11 12 10 8 9 12 15 12 6 4 4 5 9 7 2 8 12 12 9 9 9 7 7 6 4 4 4 9 11 4 2 5 4 4 4 4 3 3 7 8 3 1 2 4 7 9 8 7 9 9 8 9 9 8 7 6 7 9 8 11 8 5 5
6 5 6 6 6 7 6 6 6 5 5 5 5 6 6 6 7 8 7 5 4 3 1 1 4 6 9 12 11 9 9 12 14 12 10 5 1 7 10 4 1 4 7 6 6 6 5 6 6 5 5 5 8 9 5 6 5 3 4 3 3 4 5 8 5 3 4 3 3 5 9 10 13 13 9 8 10 11 13 10 7 8 7 6 11 9 6 7
6 6 6 6 6 6 6 6 6 5 5 4 4 5 6 5 5 6 7 8 6 5 3 1 2 2 5 7 10 12 10 8 10 13 15 10 4 2 7 8 3 1 4 5 4 4 5 6 6 4 5 7 8 8 7 6 7 5 2 1 3 4 6 8 3 2 4 5 4 5 9 11 15 15 8 8 10 11 13 11 9 10 8 7 8 9 6 7
6 7 7 7 7 6 6 6 5 5 5 4 4 4 4 5 6 5 5 6 7 7 5 4 3 3 4 3 5 9 11 11 9 9 13 15 12 4 2 5 5 4 5 6 5 7 6 6 9 7 5 6 8 11 7 3 8 5 2 6 4 2 6 7 2 2 5 7 6 6 7 9 13 14 9 5 5 7 9 8 9 10 11 9 7 7 7 7
7 8 8 8 8 8 8 7 7 6 5 5 5 4 4 4 5 5 5 5 6 7 6 5 5 5 5 3 4 5 7 11 14 12 10 12 16 13 6 2 3 4 5 6 5 8 8 6 10 8 4 4 6 10 5 2 7 5 6 9 5 5 7 5 3 4 6 7 7 7 7 11 14 14 13 7 -1 3 8 9 9 9 10 10 7 6 6 7
7 7 7 8 8 9 9 9 9 8 7 6 6 5 4 5 5 5 5 6 5 5 6 5 5 6 6 5 4 4 5 7 14 16 13 10 12 18 16 7 3 3 5 6 4 5 8 8 9 8 5 3 4 6 4 4 4 6 10 9 8 9 5 3 4 4 7 8 6 6 7 11 12 9 12 9 2 5 9 8 8 7 7 8 8 8 7 8
6 6 6 6 7 8 8 9 10 9 9 8 8 7 6 5 6 7 6 6 4 4 4 4 4 4 5 7 5 5 5 5 9 13 15 14 10 14 18 15 8 3 5 7 5 5 7 8 8 9 7 3 5 4 3 5 3 6 8 7 9 9 5 4 5 5 7 8 6 7 8 9 10 8 10 10 10 13 10 6 5 5 6 6 7 10 10 11
6 6 6 6 5 6 7 8 9 9 10 10 10 9 8 7 7 8 8 7 6 4 3 3 4 4 4 6 8 6 4 5 7 7 11 14 11 9 12 18 14 6 4 5 6 6 7 8 6 8 7 4 5 3 3 4 3 5 5 5 7 9 10 6 4 7 7 7 7 8 9 10 11 9 8 9 10 12 12 10 7 5 6 7 7 9 11 13
6 6 6 5 5 5 6 6 7 8 9 10 11 10 9 9 8 9 8 8 8 7 6 5 4 4 5 5 8 7 4 6 5 2 6 11 13 10 8 13 17 14 7 2 4 5 8 9 5 5 7 5 3 1 2 4 3 4 3 5 6 8 14 9 3 4 5 3 5 11 14 12 10 7 6 8 10 11 12 12 9 6 6 6 8 8 9 11
5 5 5 5 5 5 5 5 5 6 6 8 10 11 10 9 9 9 9 9 8 8 8 8 7 6 6 5 7 7 4 5 4 3 4 7 11 11 10 9 13 17 13 6 3 4 9 7 3 5 5 5 5 2 0 5 5 2 2 5 7 8 12 10 0 -3 2 3 5 14 15 10 9 7 7 8 11 13 13 12 9 7 5 6 9 8 6 8
5 5 5 5 5 5 5 5 4 4 4 5 6 8 10 10 10 10 10 9 8 8 8 8 8 8 7 6 6 6 3 5 6 5 3 3 5 10 14 12 11 15 16 15 5 3 7 6 6 6 4 7 9 3 2 6 4 1 4 5 5 7 8 7 -3 -10 -2 4 8 13 12 9 8 4 6 8 11 14 12 13 12 8 5 6 10 10 7 6
6 6 5 5 4 5 5 4 4 4 4 4 4 5 7 8 9 10 11 10 9 8 8 8 8 8 8 6 6 7 4 5 7 7 4 2 4 8 13 13 14 12 14 19 12 5 3 5 8 3 5 11 5 1 7 10 3 1 6 6 5 5 6 4 -4 -8 -1 8 9 12 9 3 7 7 4 5 7 11 11 11 12 10 8 5 9 12 9 7
7 7 7 6 5 4 4 4 3 4 4 3 4 4 5 5 6 8 9 11 10 9 8 8 8 8 8 5 5 8 6 4 6 8 6 5 7 8 8 8 12 12 11 15 16 13 5 6 8 1 5 8 2 6 9 7 5 3 4 7 8 6 6 3 -0 -2 1 11 10 10 5 -7 9 14 3 4 2 5 10 9 10 10 9 7 7 10 12 10
5 6 7 7 7 6 4 4 4 4 4 3 2 2 3 4 5 6 7 9 10 10 9 9 9 9 8 5 5 7 6 4 6 7 4 4 6 6 5 5 8 11 13 12 15 18 13 8 4 2 7 2 5 14 8 4 7 3 1 6 7 7 6 1 2 1 1 10 7 12 9 -9 10 15 -1 5 0 -1 8 7 9 9 9 9 6 7 10 12
6 5 5 6 7 7 6 5 4 4 5 4 3 1 1 2 4 4 5 6 8 9 9 9 9 9 9 8 6 6 6 5 5 5 3 3 5 4 5 7 7 8 12 13 14 18 17 13 6 4 8 2 5 12 4 5 8 3 3 6 4 6 7 1 3 5 4 8 5 16 11 -12 8 19 2 4 1 1 4 4 9 8 8 9 7 7 8 12
6 6 6 6 6 6 6 7 6 5 5 4 4 2 -0 -0 2 4 4 4 5 7 8 7 9 9 9 10 9 6 6 5 4 4 3 3 4 4 5 6 8 6 7 11 12 15 18 19 13 7 8 6 6 6 4 11 13 9 7 5 4 10 12 4 1 3 4 7 7 16 10 -9 7 15 1 1 1 3 3 2 7 6 8 8 6 8 8 11
6 6 6 6 6 5 5 6 6 6 6 5 4 2 -1 -1 1 4 5 4 3 5 6 6 7 7 8 9 9 9 7 5 5 4 2 3 3 4 5 5 7 8 7 8 9 12 16 19 20 14 10 8 5 2 1 9 14 12 10 5 0 5 11 5 0 3 4 5 6 12 11 4 7 4 -0 3 1 2 3 1 2 3 7 7 6 7 7 10
9 8 7 7 7 6 6 6 6 6 7 6 5 3 2 1 1 3 5 6 5 5 5 5 6 6 7 8 8 10 8 5 6 7 4 4 3 3 5 4 4 5 5 7 7 9 12 15 19 18 16 13 8 4 0 4 8 8 13 14 6 2 7 5 1 2 2 1 2 10 16 7 1 3 3 3 2 3 6 4 2 2 3 5 6 5 5 8
9 10 10 10 9 7 6 6 6 6 6 7 7 6 5 4 4 4 5 6 6 6 5 4 5 5 5 6 7 8 8 6 6 9 7 5 4 3 4 4 4 4 5 9 8 8 9 11 16 15 16 18 13 9 5 3 5 4 8 16 15 8 7 5 2 0 1 1 -0 8 18 5 -3 5 3 -0 3 4 6 6 3 3 2 3 4 3 5 7
10 10 11 11 12 10 8 7 6 7 7 6 6 6 6 5 5 5 4 5 5 6 6 6 5 5 5 5 5 7 7 6 6 8 8 7 6 5 5 4 3 3 5 7 6 6 5 7 15 18 18 19 18 16 13 6 5 6 3 7 13 14 13 8 2 1 2 2 1 6 17 9 -0 5 1 0 4 2 2 3 2 2 1 2 2 3 6 6
11 11 12 12 13 12 12 10 8 8 7 7 6 6 6 5 6 6 5 5 6 5 5 7 8 6 7 4 3 5 5 5 6 7 8 8 6 6 7 6 3 3 3 2 1 4 5 3 8 14 15 16 17 17 15 9 8 10 4 4 11 15 17 11 4 5 4 1 2 3 12 14 6 2 -1 1 2 -2 -1 1 1 2 0 2 2 2 5 6
12 12 12 13 14 13 13 12 11 10 9 8 7 7 6 6 6 6 6 5 7 8 5 5 7 6 7 7 5 6 4 4 5 6 7 8 7 7 7 5 4 5 4 4 4 5 7 7 6 8 8 11 13 12 11 11 10 10 7 6 8 9 14 16 10 8 3 0 3 3 9 17 12 2 -1 2 2 -2 -1 1 1 3 3 4 3 2 4 5
9 10 10 11 12 14 14 13 13 12 11 10 10 9 7 6 7 7 7 5 5 10 8 3 5 6 7 7 6 5 4 4 5 4 5 5 6 7 7 6 5 6 6 5 5 4 5 6 7 5 5 7 10 11 12 12 10 11 12 8 5 4 8 14 13 10 5 -0 2 3 6 15 14 5 2 2 2 0 -1 0 2 5 5 4 3 5 6 6
7 7 8 8 9 11 12 14 15 13 13 13 12 12 10 7 7 6 7 7 3 5 9 7 4 5 5 7 8 7 5 5 6 6 5 6 6 7 9 9 7 6 6 5 5 5 4 4 7 6 6 6 7 10 14 14 11 10 13 10 6 5 7 10 12 13 10 2 0 3 6 13 13 8 3 1 4 3 -2 1 6 6 5 4 3 3 4 6
7 7 7 7 7 8 8 10 12 13 13 13 13 13 14 12 10 7 7 10 6 0 6 10 7 5 4 5 7 7 7 6 6 5 3 5 6 5 6 6 7 7 7 6 5 6 5 5 7 6 7 7 6 10 12 12 13 11 11 10 10 10 7 7 12 15 14 6 0 4 10 13 12 10 4 0 6 6 -3 0 7 6 5 6 5 2 2 4
8 8 8 8 7 7 7 7 8 10 11 13 14 11 14 15 14 11 7 10 12 4 4 9 8 7 6 7 7 6 6 7 8 7 6 6 5 5 5 4 7 8 8 6 5 8 9 8 7 5 7 8 6 9 11 10 13 15 13 10 9 11 7 5 8 11 13 10 -0 -1 7 12 14 11 2 -0 6 5 -2 0 8 7 5 7 8 6 3 3
11 10 9 10 10 8 8 8 7 8 7 10 12 10 13 14 15 15 9 10 14 6 3 9 9 7 6 7 8 8 6 6 7 9 9 9 5 3 4 5 7 8 9 7 4 7 9 10 10 7 7 8 7 7 9 10 11 13 18 17 10 7 8 6 4 4 9 10 2 -1 2 8 21 22 5 0 5 2 -1 2 8 8 4 5 6 7 5 4
13 11 10 11 12 11 10 9 8 9 7 7 7 8 10 10 12 13 10 13 16 6 3 8 9 8 8 7 7 8 8 6 5 6 8 8 9 7 5 6 7 6 7 7 6 5 4 6 8 6 5 6 7 5 4 8 8 8 17 24 14 4 6 5 4 6 6 3 3 7 4 -1 19 35 16 3 7 4 2 6 8 7 4 3 4 6 8 6
14 13 12 12 14 14 13 12 10 9 9 8 6 6 6 7 9 8 9 15 16 11 7 6 7 9 10 9 8 9 9 7 5 7 8 7 9 9 7 6 6 6 7 7 8 7 6 4 1 5 9 6 4 2 2 4 3 3 12 21 15 6 5 2 3 7 -2 -4 4 13 9 -9 7 39 23 5 13 10 5 10 9 6 3 3 3 4 7 8
13 13 13 13 13 14 14 15 14 11 10 10 9 8 5 6 5 5 11 13 13 16 12 5 6 7 9 10 8 9 11 11 7 6 6 8 9 8 6 5 4 4 4 5 7 5 8 8 0 4 9 4 4 5 5 3 -1 3 8 12 12 9 7 3 5 3 -6 3 12 12 12 -3 9 43 28 9 18 15 10 10 7 6 3 1 3 4 5 7
19 18 17 15 15 15 14 15 16 15 13 11 11 11 8 8 7 5 9 8 8 16 15 8 7 6 8 12 10 8 9 11 11 7 6 8 10 9 9 8 6 4 3 6 9 4 7 11 6 5 5 3 7 8 6 3 2 6 6 5 8 10 9 9 8 -1 -6 13 18 12 13 -0 5 29 22 17 22 11 8 9 5 6 3 1 4 4 4 6
31 27 26 24 21 21 18 16 16 16 16 14 13 14 12 10 8 6 6 5 6 11 13 12 10 7 9 12 13 12 8 9 10 9 8 8 9 11 12 11 9 8 6 6 9 6 8 14 9 6 4 2 5 6 7 8 8 10 9 5 5 7 10 11 10 3 2 13 10 9 13 -1 0 14 14 28 35 14 6 8 7 6 4 4 3 3 4 3
38 35 33 33 30 29 28 25 22 19 18 18 15 15 16 15 13 11 8 5 5 5 7 10 9 8 9 9 11 13 11 11 10 8 8 6 7 8 9 10 7 7 6 4 5 5 7 12 12 11 9 5 4 5 6 7 9 11 12 9 7 8 9 9 8 5 9 11 3 12 22 9 13 26 24 30 35 21 11 8 8 6 3 4 0 1 4 2
37 36 33 34 33 33 33 31 31 27 24 24 21 18 18 18 16 13 8 5 6 4 4 6 6 7 8 9 11 12 11 12 11 11 9 6 6 8 12 16 13 8 6 3 3 4 4 5 7 12 14 10 8 8 6 4 5 8 8 9 11 12 9 11 11 6 12 13 2 11 23 14 15 28 33 34 27 22 17 8 6 5 2 3 1 2 5 2
29 31 30 29 29 30 32 33 35 34 30 29 27 25 23 18 15 16 14 9 7 7 7 8 8 6 5 6 8 8 9 10 11 12 13 11 8 5 8 12 12 11 8 6 7 6 6 6 4 5 11 11 9 9 9 6 6 6 4 5 12 14 10 9 10 7 10 10 2 7 15 16 17 16 23 30 21 18 17 4 2 4 2 2 2 3 4 2
24 29 27 25 23 23 24 25 28 32 35 34 31 29 28 24 21 21 20 14 10 10 9 8 8 6 5 6 5 6 10 12 13 12 12 14 11 6 4 4 8 10 6 4 7 6 5 7 5 4 7 9 8 8 9 7 6 7 5 4 7 11 9 6 7 7 8 9 11 12 8 13 22 17 19 26 18 20 21 7 3 5 1 3 4 3 2 2
23 30 26 21 21 21 21 21 19 20 26 32 33 32 31 29 27 26 24 20 15 13 10 8 9 7 6 8 6 7 11 10 10 10 8 8 9 8 6 6 10 10 6 7 9 6 5 5 5 5 7 7 6 6 5 4 4 5 6 5 3 4 6 6 7 5 6 8 8 8 11 19 24 17 17 21 17 21 23 14 11 9 2 3 6 4 1 1
22 32 26 19 20 23 26 26 23 21 22 22 25 29 31 31 31 31 31 26 20 18 15 10 10 9 7 8 7 9 11 8 9 12 8 5 5 6 6 5 6 7 8 12 11 9 11 10 5 6 8 6 3 1 1 2 3 4 4 2 -1 1 2 3 4 4 5 7 5 10 17 17 17 17 17 18 16 16 16 10 10 11 6 6 8 5 2 2
25 32 24 19 19 22 27 29 28 26 21 16 18 23 27 30 32 33 33 30 23 22 20 13 11 10 7 6 8 10 10 9 11 11 9 9 10 10 9 7 6 7 9 10 8 10 14 13 7 7 7 3 0 1 1 1 0 2 3 -1 -2 5 4 -2 1 3 3 6 7 11 10 7 19 26 19 17 17 15 17 13 9 10 9 9 10 6 3 3
30 29 21 19 17 21 36 42 36 28 23 21 22 22 21 24 30 34 34 32 26 24 23 19 16 15 13 11 9 8 9 11 13 12 9 12 11 8 8 7 6 8 10 10 8 6 8 10 8 6 6 4 3 5 5 2 -1 0 3 1 3 10 6 -0 3 2 -0 1 -3 -1 9 20 33 29 14 13 15 15 19 15 10 11 9 8 8 4 2 4
31 23 18 20 14 23 44 47 37 32 32 30 25 24 23 21 24 32 37 33 26 26 27 23 20 18 18 18 11 6 8 10 12 11 7 7 8 7 8 8 7 9 9 9 8 4 5 9 8 4 5 7 7 5 4 4 2 1 3 3 4 7 4 2 5 3 2 1 -4 -0 7 8 12 14 13 15 12 14 20 15 10 12 9 7 6 2 3 4
26 16 18 19 12 25 42 37 28 24 20 15 16 23 27 23 20 27 39 40 32 28 27 25 23 19 16 17 13 9 11 12 11 8 4 5 8 9 9 8 8 9 9 7 6 6 6 9 10 7 6 7 6 4 4 4 3 1 1 1 2 4 4 5 4 4 5 3 3 9 4 -6 -0 7 10 14 14 18 22 16 11 13 10 8 5 2 4 5
23 15 17 17 12 24 35 31 28 27 19 13 13 18 23 26 24 21 28 37 38 34 29 26 24 20 18 19 17 13 11 11 12 9 6 8 9 7 8 8 6 6 8 7 5 5 6 7 10 9 6 6 4 2 3 2 1 2 2 3 3 3 4 5 2 1 3 3 6 7 1 1 10 7 2 11 16 17 23 19 12 11 12 10 5 3 4 3
22 14 14 15 15 22 27 25 26 29 29 27 22 19 19 21 24 25 22 25 34 36 34 33 27 20 23 23 19 19 17 10 7 6 6 9 9 9 8 7 7 6 6 7 7 8 7 5 7 6 4 6 5 2 4 4 3 5 5 5 4 2 3 6 4 -2 -1 2 4 4 4 8 14 11 8 12 13 13 20 21 15 13 13 12 9 9 7 4
22 14 12 15 18 19 21 20 19 21 25 28 25 21 18 12 13 21 22 23 31 34 33 39 34 22 22 25 20 18 19 15 8 5 7 7 6 9 8 5 7 7 6 7 6 8 8 5 5 6 5 5 6 6 6 7 5 4 5 5 3 2 4 7 4 -1 1 2 -2 2 7 2 7 18 14 8 11 15 15 16 17 16 12 11 11 11 10 7
21 16 12 13 17 20 19 16 16 19 21 23 23 21 20 13 8 11 13 16 23 27 27 36 41 34 26 23 23 21 17 17 14 9 8 7 5 7 8 8 7 5 6 8 6 6 8 6 5 6 6 4 6 7 7 7 6 3 4 5 3 3 4 4 4 2 2 0 -3 3 5 -2 9 24 16 7 11 13 14 16 15 13 12 10 9 8 8 9
21 18 14 11 11 17 21 17 14 16 17 18 20 18 15 14 12 12 13 12 14 21 25 26 33 42 39 27 26 29 24 18 17 14 10 9 9 9 7 7 7 6 6 7 7 6 6 6 6 5 6 6 5 7 8 8 7 5 5 5 3 3 4 5 7 5 2 1 0 2 -0 1 11 7 -6 0 11 8 11 17 16 18 18 13 12 10 7 7
19 18 15 12 10 12 18 20 18 18 17 14 14 16 14 13 14 14 16 17 13 17 26 21 15 29 42 35 28 29 29 23 19 16 12 9 9 10 8 7 6 6 6 5 6 7 5 6 6 4 5 5 5 6 7 7 8 7 7 6 4 5 5 5 6 5 4 5 5 3 -1 1 5 -9 -21 -5 9 6 7 12 14 20 21 17 17 15 10 6
15 19 18 13 11 12 15 18 19 20 19 15 14 15 15 14 15 14 15 18 16 16 23 24 18 19 30 36 32 29 28 27 22 16 13 13 12 9 7 7 5 4 5 5 5 6 6 5 5 5 6 5 5 5 5 6 7 7 7 7 5 6 6 5 6 5 6 5 4 6 4 -0 -0 -3 -3 6 9 6 8 9 8 12 16 18 18 16 14 9
12 17 21 16 11 13 15 16 17 18 16 14 15 15 15 14 15 16 15 14 16 17 18 21 24 22 23 29 33 32 31 31 29 23 15 12 12 10 6 6 7 6 5 5 5 5 6 6 5 5 6 5 5 5 5 5 6 6 7 6 6 7 6 7 7 6 7 8 7 8 6 2 -0 1 4 9 9 6 7 7 7 8 10 14 17 18 20 16
11 13 19 20 13 11 16 17 16 17 12 10 15 16 15 15 13 13 14 13 14 17 16 18 22 24 26 27 26 29 34 35 31 28 23 15 11 11 9 8 8 8 6 5 6 5 5 6 6 5 5 5 5 5 5 5 6 6 7 6 5 6 7 7 9 7 7 8 8 6 5 5 7 5 3 5 8 8 6 5 6 7 6 9 13 16 19 21
Height
5888 5887 5887 5886 5886 5885 5885 5885 5884 5884 5884 5884 5883 5883 5883 5882 5882 5881 5881 5881 5881 5881 5881 5881 5881 5881 5881 5882 5882 5882 5883 5883 5884 5884 5885 5887 5888 5889 5890 5891 5892 5893 5894 5895 5896 5897 5897 5898 5899 5900 5901 5902 5904 5904 5905 5905 5905 5906 5906 5906 5907 5907 5907 5907 5907 5908 5908 5909 5909 5909 5909 5908 5908 5908 5907 5907 5907 5907 5907 5907 5908 5908 5909 5909 5910 5910 5910 5911
5886 5886 5885 5885 5884 5884 5884 5884 5883 5883 5883 5882 5882 5882 5882 5881 5880 5880 5880 5880 5880 5880 5880 5880 5880 5880 5880 5880 5880 5881 5881 5881 5882 5882 5884 5886 5886 5887 5889 5889 5890 5891 5892 5893 5894 5895 5896 5897 5897 5898 5899 5900 5902 5904 5904 5905 5905 5905 5906 5906 5907 5906 5906 5907 5907 5908 5908 5909 5909 5909 5908 5908 5908 5908 5907 5907 5907 5907 5907 5907 5908 5908 5909 5909 5910 5910 5911 5911
5885 5885 5884 5884 5883 5883 5883 5882 5882 5882 5881 5881 5881 5881 5881 5880 5879 5879 5878 5878 5878 5878 5879 5879 5879 5879 5879 5879 5879 5879 5879 5880 5880 5881 5882 5884 5885 5886 5887 5888 5888 5888 5889 5890 5891 5893 5894 5895 5895 5896 5898 5899 5901 5902 5903 5904 5904 5905 5905 5905 5906 5906 5906 5906 5907 5907 5908 5908 5909 5909 5908 5908 5908 5908 5907 5907 5907 5907 5907 5907 5908 5908 5909 5909 5909 5910 5911 5912
5883 5883 5882 5882 5882 5881 5881 5881 5880 5880 5880 5880 5880 5880 5880 5879 5878 5877 5877 5877 5877 5877 5877 5877 5877 5877 5877 5878 5878 5878 5878 5878 5878 5879 5880 5881 5883 5884 5886 5886 5887 5887 5887 5888 5889 5891 5892 5893 5894 5896 5897 5898 5900 5901 5902 5903 5904 5904 5904 5905 5905 5906 5906 5906 5906 5907 5908 5908 5908 5908 5908 5908 5908 5907 5907 5907 5907 5907 5907 5907 5907 5908 5909 5909 5909 5910 5910 5911
5881 5880 5880 5880 5879 5879 5879 5879 5878 5878 5878 5878 5879 5878 5878 5878 5877 5876 5876 5876 5876 5876 5876 5876 5875 5875 5876 5876 5877 5877 5877 5877 5877 5877 5878 5879 5881 5882 5884 5885 5885 5886 5887 5887 5888 5890 5891 5892 5894 5895 5896 5898 5899 5900 5901 5902 5903 5904 5904 5904 5904 5905 5906 5906 5906 5907 5907 5908 5908 5908 5908 5907 5907 5907 5907 5907 5907 5907 5907 5907 5907 5907 5908 5908 5909 5909 5910 5911
5878 5878 5877 5877 5877 5876 5876 5876 5876 5876 5876 5876 5877 5876 5876 5876 5875 5875 5875 5875 5874 5874 5874 5874 5874 5874 5874 5874 5875 5875 5876 5876 5876 5876 5876 5877 5878 5880 5881 5883 5883 5884 5885 5886 5887 5889 5890 5892 5893 5895 5896 5897 5898 5899 5900 5900 5902 5903 5903 5903 5904 5904 5905 5906 5906 5907 5907 5908 5908 5908 5907 5907 5907 5907 5907 5906 5906 5906 5906 5906 5906 5906 5906 5907 5908 5909 5910 5910
5876 5875 5875 5874 5874 5874 5874 5873 5873 5873 5873 5874 5874 5874 5873 5873 5873 5873 5873 5873 5873 5872 5873 5873 5872 5872 5872 5872 5873 5874 5875 5875 5874 5874 5875 5875 5876 5878 5879 5880 5882 5883 5884 5885 5886 5888 5889 5891 5892 5893 5894 5895 5897 5898 5898 5899 5901 5902 5902 5903 5903 5904 5905 5905 5906 5907 5907 5908 5908 5908 5907 5907 5907 5907 5907 5906 5906 5906 5906 5906 5906 5905 5906 5906 5907 5908 5909 5909
5873 5873 5872 5872 5871 5871 5871 5871 5870 5870 5870 5871 5871 5871 5871 5871 5871 5871 5871 5871 5871 5871 5871 5871 5871 5870 5870 5870 5871 5872 5873 5873 5873 5873 5873 5874 5874 5875 5877 5878 5879 5881 5882 5884 5885 5886 5887 5889 5890 5891 5893 5894 5895 5896 5897 5898 5899 5901 5902 5902 5902 5903 5904 5905 5906 5907 5907 5908 5908 5908 5907 5907 5907 5907 5907 5907 5906 5907 5906 5905 5905 5905 5905 5905 5906 5907 5908 5908
5871 5870 5870 5869 5869 5868 5868 5868 5867 5867 5867 5868 5868 5868 5867 5868 5868 5868 5868 5869 5869 5869 5869 5869 5869 5868 5868 5868 5869 5870 5871 5871 5871 5871 5872 5872 5873 5873 5874 5875 5877 5879 5880 5882 5883 5883 5885 5886 5888 5889 5890 5891 5892 5893 5895 5896 5897 5899 5900 5900 5901 5903 5904 5905 5906 5907 5907 5907 5908 5908 5907 5907 5907 5906 5907 5907 5906 5906 5906 5905 5904 5904 5904 5905 5905 5906 5906 5907
5868 5867 5867 5866 5866 5866 5865 5865 5864 5864 5864 5864 5865 5864 5864 5865 5865 5865 5865 5866 5866 5866 5866 5867 5867 5867 5866 5867 5867 5868 5869 5869 5869 5869 5870 5871 5871 5871 5872 5873 5874 5876 5878 5879 5881 5882 5883 5885 5886 5886 5887 5888 5890 5891 5892 5894 5895 5897 5898 5899 5901 5902 5904 5905 5906 5906 5906 5907 5907 5908 5908 5907 5907 5906 5906 5906 5906 5906 5905 5905 5904 5904 5904 5904 5904 5905 5905 5906
5864 5864 5863 5863 5863 5863 5863 5862 5862 5862 5861 5861 5861 5861 5861 5861 5862 5862 5862 5863 5863 5864 5864 5864 5864 5864 5864 5865 5865 5866 5867 5867 5867 5867 5868 5869 5870 5870 5870 5871 5872 5873 5875 5877 5879 5880 5881 5882 5883 5883 5884 5886 5887 5889 5890 5892 5893 5895 5896 5898 5900 5901 5903 5904 5905 5906 5906 5906 5907 5907 5908 5907 5907 5906 5906 5906 5906 5906 5905 5905 5904 5903 5903 5903 5904 5904 5904 5905
5861 5860 5860 5859 5859 5859 5860 5859 5859 5859 5859 5858 5859 5859 5858 5858 5859 5859 5859 5859 5860 5861 5861 5861 5861 5862 5862 5862 5863 5865 5864 5864 5865 5865 5865 5867 5868 5868 5869 5869 5870 5871 5872 5874 5876 5877 5878 5879 5880 5881 5882 5884 5885 5886 5887 5889 5891 5892 5894 5897 5899 5900 5902 5903 5904 5905 5905 5905 5906 5907 5907 5907 5906 5906 5905 5905 5905 5905 5905 5905 5904 5903 5903 5903 5903 5903 5904 5904
5857 5856 5856 5856 5855 5856 5856 5856 5855 5855 5855 5855 5855 5856 5855 5855 5855 5856 5856 5856 5857 5857 5858 5858 5859 5859 5859 5859 5861 5862 5862 5862 5863 5863 5863 5864 5865 5866 5867 5867 5868 5869 5870 5871 5872 5873 5874 5876 5878 5879 5880 5882 5882 5883 5885 5888 5889 5890 5892 5895 5897 5898 5900 5901 5902 5904 5905 5905 5905 5906 5906 5906 5906 5906 5905 5905 5905 5905 5905 5904 5904 5903 5903 5902 5902 5903 5903 5904
5852 5852 5852 5851 5851 5851 5852 5852 5852 5851 5851 5852 5852 5852 5852 5852 5852 5852 5853 5853 5853 5854 5854 5855 5855 5856 5857 5856 5858 5860 5859 5859 5860 5861 5861 5861 5863 5864 5865 5865 5866 5867 5867 5868 5869 5871 5872 5874 5875 5876 5878 5879 5879 5881 5884 5886 5887 5888 5890 5892 5894 5897 5899 5899 5900 5902 5903 5904 5904 5905 5905 5906 5906 5905 5904 5904 5904 5905 5905 5904 5904 5903 5903 5902 5902 5902 5903 5903
5847 5847 5847 5846 5846 5847 5848 5848 5848 5847 5847 5848 5848 5848 5848 5849 5849 5849 5849 5850 5850 5850 5851 5852 5852 5853 5854 5853 5855 5857 5856 5857 5858 5859 5859 5859 5860 5861 5862 5863 5864 5865 5865 5866 5867 5869 5870 5872 5873 5874 5876 5877 5877 5881 5882 5883 5885 5886 5888 5890 5893 5895 5897 5898 5899 5900 5901 5902 5903 5904 5904 5905 5905 5904 5904 5904 5904 5904 5904 5904 5904 5903 5903 5902 5902 5902 5902 5903
5842 5842 5841 5841 5841 5842 5842 5843 5843 5843 5842 5843 5843 5844 5844 5845 5845 5845 5846 5846 5847 5847 5847 5848 5849 5850 5850 5850 5851 5854 5854 5854 5855 5856 5857 5857 5858 5858 5859 5861 5862 5863 5863 5864 5865 5866 5867 5869 5870 5872 5874 5875 5877 5879 5880 5881 5883 5883 5886 5889 5891 5893 5895 5896 5897 5898 5899 5900 5902 5902 5903 5903 5903 5903 5903 5903 5903 5903 5903 5903 5903 5903 5902 5902 5902 5902 5901 5902
5836 5836 5836 5835 5835 5836 5837 5837 5838 5837 5837 5838 5839 5840 5840 5840 5841 5841 5842 5842 5843 5844 5844 5845 5846 5846 5847 5846 5847 5850 5851 5851 5852 5854 5854 5854 5855 5856 5857 5858 5859 5860 5861 5862 5863 5863 5865 5866 5868 5870 5871 5873 5876 5877 5877 5879 5880 5882 5884 5887 5889 5891 5893 5894 5894 5896 5897 5898 5900 5901 5901 5901 5902 5902 5902 5902 5902 5902 5902 5902 5902 5902 5902 5902 5901 5901 5901 5901
5831 5830 5830 5829 5829 5830 5831 5831 5832 5831 5831 5832 5833 5834 5835 5836 5836 5837 5838 5838 5839 5840 5840 5842 5842 5843 5844 5843 5843 5846 5847 5848 5849 5850 5851 5851 5852 5853 5854 5855 5856 5857 5859 5860 5861 5861 5862 5864 5865 5867 5869 5871 5872 5874 5875 5878 5879 5881 5883 5885 5887 5889 5891 5892 5892 5893 5895 5896 5898 5899 5900 5901 5901 5901 5900 5901 5901 5901 5901 5900 5900 5901 5901 5901 5901 5901 5901 5901
5825 5824 5823 5823 5823 5823 5824 5824 5825 5825 5826 5826 5827 5829 5830 5830 5831 5832 5833 5833 5834 5835 5836 5838 5838 5839 5840 5840 5840 5842 5843 5844 5846 5847 5848 5848 5849 5850 5851 5852 5853 5855 5856 5858 5859 5860 5860 5861 5863 5864 5866 5868 5870 5872 5875 5877 5878 5879 5882 5883 5885 5888 5889 5890 5889 5889 5892 5895 5896 5898 5898 5899 5899 5899 5899 5899 5900 5900 5900 5900 5899 5900 5900 5900 5900 5900 5900 5900
5819 5817 5816 5816 5816 5816 5817 5817 5818 5819 5820 5820 5821 5822 5824 5824 5825 5826 5828 5828 5829 5831 5831 5833 5834 5835 5836 5836 5836 5837 5839 5839 5841 5843 5845 5845 5846 5847 5848 5849 5850 5852 5854 5855 5856 5857 5858 5859 5860 5862 5864 5867 5869 5871 5873 5874 5875 5877 5879 5881 5884 5885 5887 5888 5887 5887 5890 5892 5893 5895 5896 5896 5897 5897 5897 5897 5898 5900 5900 5900 5899 5899 5899 5899 5899 5899 5899 5899
5812 5810 5809 5809 5809 5809 5810 5810 5810 5812 5813 5814 5814 5815 5817 5818 5818 5820 5822 5823 5824 5825 5826 5828 5830 5831 5831 5832 5832 5833 5834 5835 5837 5839 5841 5841 5842 5843 5845 5847 5847 5849 5851 5852 5853 5854 5856 5857 5859 5861 5862 5864 5866 5868 5870 5871 5872 5875 5877 5879 5881 5882 5884 5886 5884 5885 5888 5889 5891 5892 5894 5895 5895 5895 5896 5896 5897 5898 5899 5899 5898 5898 5898 5898 5898 5898 5898 5899
5805 5804 5802 5801 5801 5801 5802 5802 5803 5804 5805 5806 5807 5808 5809 5811 5812 5813 5816 5817 5818 5819 5821 5823 5824 5826 5827 5826 5828 5829 5830 5831 5833 5835 5837 5837 5838 5840 5843 5843 5844 5847 5847 5848 5850 5852 5854 5857 5858 5858 5858 5860 5861 5864 5866 5867 5869 5872 5874 5875 5877 5880 5882 5882 5882 5883 5886 5886 5888 5890 5891 5892 5892 5893 5894 5895 5896 5897 5897 5898 5897 5897 5896 5896 5896 5896 5897 5898
5798 5797 5795 5794 5793 5793 5794 5794 5795 5796 5797 5798 5800 5801 5802 5803 5804 5806 5808 5811 5812 5812 5814 5817 5819 5820 5821 5822 5823 5823 5826 5828 5829 5830 5833 5833 5835 5837 5838 5840 5841 5843 5843 5845 5847 5849 5852 5854 5854 5854 5855 5856 5857 5859 5861 5862 5864 5867 5870 5872 5876 5878 5878 5880 5881 5881 5882 5883 5885 5887 5888 5889 5890 5891 5893 5894 5894 5895 5895 5896 5896 5896 5896 5896 5895 5895 5895 5896
5791 5790 5788 5787 5786 5786 5786 5786 5786 5787 5788 5790 5791 5793 5794 5795 5796 5799 5801 5804 5807 5807 5807 5809 5813 5814 5814 5817 5817 5818 5821 5823 5824 5826 5828 5829 5830 5832 5834 5837 5838 5838 5840 5843 5844 5845 5849 5850 5850 5851 5852 5853 5854 5856 5857 5859 5860 5863 5867 5869 5874 5874 5875 5877 5876 5875 5878 5880 5883 5884 5885 5886 5887 5889 5891 5892 5892 5892 5893 5894 5895 5896 5896 5896 5895 5895 5895 5896
5783 5781 5780 5780 5779 5778 5779 5778 5778 5779 5779 5781 5783 5785 5786 5787 5788 5791 5793 5795 5799 5801 5800 5802 5805 5807 5809 5811 5812 5813 5815 5817 5819 5822 5823 5825 5826 5827 5830 5832 5833 5835 5838 5839 5840 5842 5844 5846 5847 5848 5849 5850 5852 5853 5855 5856 5858 5860 5864 5867 5870 5870 5871 5873 5871 5873 5877 5878 5880 5881 5881 5883 5886 5888 5889 5889 5889 5890 5891 5892 5894 5895 5896 5895 5895 5894 5894 5894
5775 5773 5771 5772 5771 5770 5771 5770 5770 5771 5771 5771 5774 5776 5777 5779 5780 5782 5784 5786 5790 5793 5795 5796 5796 5799 5803 5805 5806 5807 5808 5811 5814 5815 5817 5821 5822 5823 5825 5827 5828 5831 5835 5835 5835 5837 5840 5842 5844 5845 5846 5848 5849 5851 5852 5853 5854 5856 5860 5863 5864 5866 5868 5869 5870 5872 5874 5875 5876 5875 5876 5880 5883 5884 5885 5885 5887 5888 5888 5890 5892 5893 5894 5895 5894 5894 5893 5893
5767 5764 5762 5762 5762 5762 5762 5762 5763 5763 5762 5762 5765 5767 5768 5770 5772 5774 5776 5777 5780 5784 5787 5789 5790 5791 5795 5798 5800 5800 5800 5805 5808 5808 5812 5816 5817 5819 5820 5822 5825 5827 5831 5831 5830 5834 5837 5839 5841 5842 5844 5845 5847 5850 5850 5850 5851 5854 5856 5858 5860 5863 5865 5867 5869 5869 5869 5872 5871 5869 5873 5876 5877 5880 5881 5881 5884 5885 5886 5889 5891 5892 5894 5894 5894 5894 5893 5893
5757 5756 5753 5752 5752 5753 5753 5754 5754 5754 5754 5754 5756 5758 5759 5762 5764 5766 5768 5768 5770 5775 5778 5780 5783 5786 5787 5790 5793 5794 5795 5800 5802 5802 5807 5810 5812 5814 5815 5817 5822 5824 5826 5826 5828 5833 5835 5835 5838 5839 5840 5842 5845 5847 5847 5847 5849 5851 5853 5854 5857 5859 5861 5863 5864 5864 5866 5867 5864 5866 5871 5871 5872 5877 5879 5878 5881 5882 5884 5887 5889 5890 5892 5893 5894 5894 5893 5893
5747 5747 5744 5742 5742 5742 5743 5744 5745 5745 5746 5746 5747 5748 5750 5752 5755 5757 5758 5759 5762 5766 5769 5772 5775 5778 5780 5782 5785 5788 5790 5793 5794 5796 5799 5803 5806 5809 5811 5814 5817 5819 5819 5821 5824 5828 5828 5831 5833 5833 5833 5837 5841 5841 5841 5844 5846 5847 5849 5851 5854 5854 5856 5858 5857 5859 5862 5859 5858 5864 5867 5866 5869 5875 5876 5874 5876 5879 5883 5886 5887 5888 5890 5891 5892 5893 5893 5893
5736 5735 5734 5732 5731 5731 5732 5732 5734 5735 5737 5737 5738 5739 5741 5743 5746 5747 5747 5751 5755 5757 5761 5763 5765 5769 5773 5776 5778 5781 5785 5786 5788 5791 5792 5796 5800 5803 5806 5808 5810 5812 5814 5815 5819 5821 5823 5827 5827 5826 5830 5834 5835 5835 5837 5840 5841 5843 5845 5847 5848 5849 5851 5852 5852 5856 5856 5852 5854 5861 5864 5863 5864 5869 5871 5871 5874 5879 5883 5884 5885 5886 5887 5889 5890 5891 5892 5893
5723 5722 5722 5720 5719 5720 5720 5720 5722 5724 5725 5727 5728 5730 5731 5732 5735 5736 5738 5744 5747 5747 5750 5753 5756 5760 5765 5768 5771 5774 5777 5779 5782 5784 5784 5788 5793 5796 5799 5801 5803 5806 5808 5810 5814 5815 5818 5823 5822 5823 5828 5830 5830 5832 5835 5837 5837 5839 5842 5842 5843 5845 5847 5848 5849 5852 5850 5848 5853 5859 5862 5861 5860 5865 5869 5868 5872 5878 5880 5881 5882 5884 5885 5887 5888 5889 5891 5892
5709 5708 5707 5706 5706 5707 5707 5708 5709 5711 5712 5715 5717 5719 5721 5721 5723 5726 5730 5735 5735 5736 5740 5744 5748 5752 5755 5760 5763 5766 5769 5772 5775 5777 5778 5781 5785 5790 5794 5796 5799 5802 5803 5807 5811 5811 5814 5819 5819 5820 5825 5826 5826 5828 5831 5832 5833 5836 5838 5838 5839 5842 5844 5845 5847 5848 5846 5848 5852 5856 5859 5858 5858 5864 5866 5865 5870 5875 5876 5879 5880 5882 5883 5884 5886 5888 5889 5890
5695 5694 5692 5691 5691 5692 5693 5694 5696 5697 5699 5701 5704 5707 5709 5709 5712 5717 5720 5722 5723 5727 5732 5736 5740 5743 5747 5750 5754 5758 5761 5764 5768 5771 5773 5774 5777 5783 5788 5791 5793 5797 5800 5803 5806 5807 5810 5813 5814 5817 5821 5822 5823 5825 5827 5829 5831 5833 5835 5836 5838 5840 5841 5843 5845 5845 5846 5848 5849 5852 5855 5855 5857 5862 5863 5864 5869 5872 5874 5877 5878 5880 5881 5882 5884 5885 5887 5888
5682 5681 5679 5677 5676 5677 5677 5679 5681 5683 5685 5687 5690 5693 5695 5698 5702 5705 5705 5709 5715 5720 5723 5727 5731 5734 5737 5740 5744 5750 5753 5756 5760 5764 5766 5768 5770 5774 5779 5783 5787 5791 5794 5796 5799 5802 5805 5808 5812 5815 5818 5820 5821 5823 5825 5827 5829 5830 5833 5835 5836 5837 5839 5841 5844 5844 5846 5846 5846 5848 5852 5853 5855 5859 5861 5864 5868 5869 5872 5875 5876 5878 5879 5880 5881 5883 5884 5886
5673 5670 5668 5666 5664 5663 5663 5664 5666 5668 5670 5672 5675 5679 5681 5684 5687 5688 5691 5699 5706 5710 5713 5718 5721 5724 5727 5730 5735 5740 5743 5747 5752 5755 5758 5761 5764 5767 5772 5777 5781 5784 5786 5789 5793 5797 5799 5803 5808 5812 5815 5817 5818 5821 5822 5823 5824 5827 5829 5829 5831 5835 5838 5841 5841 5842 5843 5843 5843 5845 5849 5851 5854 5856 5859 5862 5865 5867 5870 5872 5874 5876 5877 5878 5879 5880 5883 5884
5665 5662 5659 5656 5654 5653 5651 5651 5652 5654 5656 5658 5661 5664 5666 5668 5671 5674 5681 5689 5694 5698 5704 5708 5710 5714 5717 5719 5723 5728 5733 5739 5744 5747 5751 5755 5757 5760 5764 5769 5773 5777 5780 5783 5787 5791 5795 5797 5800 5805 5809 5811 5814 5817 5817 5818 5821 5822 5823 5826 5831 5834 5835 5837 5837 5838 5839 5839 5840 5843 5846 5849 5851 5854 5856 5860 5862 5865 5868 5869 5872 5874 5875 5876 5877 5879 5881 5883
5660 5656 5652 5649 5647 5645 5643 5642 5642 5643 5644 5646 5648 5650 5651 5653 5657 5662 5669 5676 5681 5686 5691 5694 5697 5702 5704 5707 5712 5718 5725 5731 5735 5739 5743 5746 5748 5751 5755 5759 5764 5769 5772 5775 5779 5785 5790 5792 5794 5799 5804 5806 5810 5811 5811 5813 5816 5817 5820 5825 5828 5827 5829 5831 5832 5833 5835 5836 5838 5841 5844 5846 5849 5852 5855 5858 5860 5863 5865 5868 5870 5872 5873 5873 5875 5877 5879 5881
5654 5649 5645 5643 5640 5638 5636 5635 5634 5634 5634 5635 5636 5637 5638 5640 5643 5648 5654 5661 5668 5672 5677 5682 5686 5690 5693 5697 5702 5710 5716 5720 5723 5730 5733 5735 5739 5743 5747 5752 5758 5762 5765 5769 5774 5778 5784 5786 5788 5794 5800 5802 5804 5804 5804 5807 5809 5812 5817 5821 5820 5820 5825 5827 5828 5830 5832 5834 5837 5840 5842 5844 5847 5850 5854 5856 5858 5861 5863 5865 5867 5869 5870 5871 5873 5876 5877 5879
5648 5642 5638 5635 5633 5631 5629 5627 5626 5626 5626 5626 5626 5626 5626 5628 5632 5636 5640 5647 5653 5658 5664 5669 5673 5678 5683 5687 5693 5700 5705 5708 5714 5720 5721 5724 5730 5736 5741 5745 5750 5755 5760 5766 5769 5771 5778 5781 5782 5788 5794 5795 5796 5797 5799 5802 5804 5808 5812 5813 5813 5817 5822 5824 5825 5828 5831 5833 5836 5838 5840 5842 5845 5848 5851 5853 5856 5858 5861 5862 5864 5866 5868 5869 5872 5874 5875 5877
5642 5637 5632 5628 5626 5624 5621 5620 5619 5618 5618 5617 5617 5616 5617 5620 5623 5625 5628 5634 5639 5644 5650 5655 5660 5666 5671 5676 5683 5689 5693 5699 5706 5710 5711 5717 5724 5729 5734 5738 5743 5749 5754 5759 5763 5765 5772 5776 5777 5782 5787 5787 5789 5792 5795 5798 5800 5804 5807 5807 5810 5815 5819 5820 5822 5825 5827 5831 5834 5836 5838 5840 5842 5844 5846 5849 5852 5854 5857 5859 5861 5863 5865 5867 5869 5871 5873 5875
5636 5632 5627 5623 5620 5616 5613 5612 5611 5610 5609 5609 5608 5608 5609 5612 5614 5615 5618 5622 5627 5632 5637 5642 5648 5655 5661 5666 5672 5677 5683 5689 5695 5699 5704 5710 5715 5719 5726 5730 5736 5742 5747 5752 5756 5758 5764 5769 5771 5775 5780 5782 5785 5788 5791 5793 5796 5801 5804 5805 5809 5814 5815 5816 5818 5822 5825 5829 5832 5835 5837 5838 5840 5841 5843 5846 5848 5850 5852 5854 5857 5859 5861 5863 5866 5868 5870 5873
5631 5627 5623 5619 5615 5610 5607 5606 5604 5603 5602 5602 5601 5601 5603 5605 5606 5607 5609 5613 5617 5621 5625 5631 5637 5643 5650 5656 5660 5666 5672 5678 5684 5689 5694 5700 5705 5712 5719 5723 5728 5734 5739 5744 5747 5749 5755 5761 5764 5768 5773 5778 5780 5782 5785 5788 5792 5797 5800 5801 5805 5809 5810 5812 5816 5821 5824 5827 5831 5833 5835 5837 5838 5840 5842 5843 5845 5846 5848 5851 5853 5856 5858 5860 5863 5865 5867 5870
5627 5622 5619 5615 5611 5606 5603 5601 5600 5598 5597 5596 5595 5596 5598 5599 5600 5601 5602 5605 5608 5611 5615 5621 5625 5631 5638 5642 5648 5656 5662 5668 5674 5678 5683 5690 5698 5704 5710 5715 5720 5725 5730 5734 5737 5742 5749 5754 5758 5763 5767 5772 5773 5774 5778 5783 5787 5790 5793 5796 5798 5801 5804 5809 5814 5818 5819 5823 5827 5829 5832 5835 5836 5839 5840 5841 5842 5844 5845 5848 5850 5852 5855 5857 5860 5861 5864 5867
5624 5619 5614 5611 5607 5603 5599 5597 5595 5594 5592 5591 5591 5593 5593 5594 5595 5595 5596 5598 5600 5602 5606 5611 5615 5619 5625 5631 5638 5646 5653 5659 5665 5669 5675 5682 5688 5695 5701 5706 5711 5715 5721 5726 5730 5737 5743 5747 5751 5756 5759 5763 5765 5766 5772 5778 5780 5783 5788 5790 5792 5795 5800 5806 5810 5811 5813 5818 5822 5825 5829 5832 5833 5835 5837 5838 5839 5841 5842 5845 5847 5849 5852 5854 5856 5858 5862 5865
5622 5617 5612 5608 5605 5601 5597 5595 5592 5590 5589 5588 5588 5588 5589 5590 5590 5590 5590 5592 5593 5594 5597 5602 5606 5610 5615 5621 5629 5637 5642 5648 5654 5659 5665 5672 5679 5686 5692 5696 5701 5706 5713 5719 5724 5731 5736 5738 5742 5748 5752 5756 5759 5761 5767 5773 5775 5778 5782 5784 5786 5790 5796 5802 5805 5805 5809 5815 5819 5822 5826 5829 5831 5833 5834 5836 5837 5838 5840 5842 5844 5847 5849 5851 5853 5856 5859 5862
5619 5615 5611 5607 5603 5599 5596 5593 5591 5589 5587 5586 5585 5585 5585 5586 5586 5585 5586 5587 5587 5589 5591 5593 5596 5601 5606 5611 5618 5627 5632 5638 5644 5648 5654 5662 5669 5676 5682 5687 5693 5698 5704 5711 5717 5722 5727 5730 5735 5742 5746 5749 5753 5757 5762 5768 5770 5773 5776 5779 5781 5786 5793 5799 5800 5801 5807 5813 5816 5820 5824 5827 5829 5831 5832 5833 5835 5837 5838 5840 5842 5844 5846 5848 5850 5853 5856 5858
5617 5612 5609 5605 5602 5598 5595 5592 5590 5588 5586 5584 5584 5583 5583 5583 5582 5582 5583 5583 5583 5585 5585 5586 5589 5593 5597 5601 5608 5616 5622 5628 5635 5639 5645 5652 5660 5667 5674 5678 5683 5689 5695 5702 5708 5714 5719 5724 5730 5736 5740 5743 5747 5751 5756 5762 5764 5767 5771 5774 5777 5782 5789 5793 5795 5798 5805 5809 5812 5818 5822 5825 5828 5829 5830 5832 5834 5835 5836 5838 5839 5841 5842 5844 5846 5849 5852 5854
5616 5611 5606 5602 5600 5597 5594 5592 5589 5587 5585 5584 5582 5582 5581 5580 5580 5579 5579 5579 5580 5580 5580 5582 5585 5586 5588 5593 5600 5607 5613 5620 5627 5631 5635 5642 5651 5658 5664 5668 5675 5681 5686 5693 5699 5706 5712 5717 5722 5729 5734 5737 5742 5746 5750 5756 5759 5762 5766 5769 5772 5778 5784 5788 5791 5796 5801 5804 5809 5816 5819 5821 5825 5828 5829 5831 5832 5833 5833 5835 5837 5839 5840 5842 5844 5846 5848 5850
5614 5610 5605 5601 5598 5596 5593 5591 5588 5586 5584 5582 5581 5580 5579 5578 5578 5577 5576 5577 5577 5576 5576 5578 5579 5580 5582 5586 5592 5598 5604 5610 5616 5621 5624 5632 5642 5649 5654 5659 5665 5671 5677 5684 5690 5698 5706 5709 5714 5722 5727 5730 5735 5740 5744 5750 5753 5757 5761 5764 5768 5774 5779 5782 5786 5793 5796 5799 5807 5814 5815 5817 5822 5824 5826 5829 5829 5830 5831 5833 5835 5837 5838 5840 5842 5843 5845 5846
5613 5609 5605 5600 5597 5594 5592 5590 5587 5585 5583 5581 5580 5578 5577 5576 5575 5575 5574 5574 5573 5572 5573 5574 5574 5575 5578 5580 5585 5590 5595 5600 5606 5610 5616 5624 5632 5638 5643 5648 5653 5661 5670 5676 5682 5691 5697 5700 5707 5717 5721 5724 5730 5734 5738 5743 5748 5751 5755 5759 5763 5768 5773 5776 5781 5787 5791 5794 5803 5809 5809 5812 5818 5821 5824 5826 5826 5827 5829 5831 5832 5833 5835 5837 5838 5840 5841 5842
5611 5607 5604 5600 5596 5593 5591 5589 5586 5584 5582 5580 5578 5577 5576 5575 5574 5573 5572 5572 5571 5570 5570 5570 5571 5572 5574 5576 5579 5583 5588 5594 5599 5602 5607 5615 5623 5629 5634 5640 5647 5656 5663 5668 5674 5682 5687 5692 5702 5710 5714 5718 5723 5728 5732 5736 5740 5743 5747 5753 5758 5763 5767 5771 5775 5782 5785 5791 5800 5803 5804 5808 5814 5818 5821 5822 5823 5825 5827 5828 5830 5831 5832 5834 5835 5838 5840 5841
5610 5606 5603 5599 5595 5592 5590 5587 5585 5583 5581 5579 5577 5576 5575 5573 5572 5572 5571 5570 5569 5568 5567 5568 5568 5569 5570 5572 5575 5577 5581 5587 5592 5596 5600 5607 5615 5622 5628 5634 5641 5648 5654 5660 5667 5674 5679 5686 5695 5701 5706 5711 5714 5720 5726 5729 5732 5736 5743 5750 5754 5757 5762 5766 5770 5776 5781 5786 5794 5797 5798 5805 5812 5816 5818 5818 5820 5823 5824 5826 5827 5828 5830 5831 5833 5836 5837 5839